Weather History for VTBU - March, 2012

Change the Weather History Date:

Saturday, March 17, 2012

  Actual Average Record
Temperature  
Mean Temperature 86 °F -  
Max Temperature 91 °F 88 °F 91 °F (1998)
Min Temperature 82 °F 79 °F 35 °F (2009)
Cooling Degree Days 22    
Growing Degree Days 36 (Base 50)    
Moisture  
Dew Point 78 °F    
Average Humidity 78    
Maximum Humidity 84    
Minimum Humidity 66    
Precipitation  
Precipitation 0.00 in - - ()
Sea Level Pressure  
Sea Level Pressure 29.81 in    
Wind  
Wind Speed 6 mph ()    
Max Wind Speed 9 mph    
Max Gust Speed -    
Visibility 5.8 miles    
Events      
Averages and records for this station are not official NWS values.
T = Trace of Precipitation, MM = Missing Value Source: Averaged Metar Reports

Daily Weather History Graph

Daily Weather History Graph

Search for Another Location

Airport or City:

Trip Planner

Search our weather history database for the weather conditions in past years. The results will help you decide how hot, cold, wet, or windy it might be!

Date:

Astronomy

Mar. 17, 2012 Rise Set
Actual Time 6:22 AM ICT 6:26 PM ICT
Civil Twilight 6:00 AM ICT 6:47 PM ICT
Nautical Twilight 5:36 AM ICT 7:12 PM ICT
Astronomical Twilight 5:11 AM ICT 7:37 PM ICT
Moon 2:12 AM ICT (3/17) 2:02 PM ICT (3/17)
Length of Visible Light 12h 46m
Length of Day
12h 04m
Waning Crescent, 27% of the Moon is Illuminated
Mar 17
Waning Crescent
Mar 22
New
Mar 31
First Quarter
Apr 7
Full
Apr 13
Last Quarter

Hourly Weather History & Observations

Time (ICT) Temp. Heat Index Dew Point Humidity Pressure Visibility Wind Dir Wind Speed Gust Speed Precip Events Conditions
12:00 AM 82.4 °F 90.9 °F 77.0 °F 84% 29.83 in 5.0 mi SSW 4.6 mph - N/A   Scattered Clouds
1:00 AM 82.4 °F 90.9 °F 77.0 °F 84% 29.80 in 5.0 mi South 3.5 mph - N/A   Scattered Clouds
1:30 AM 82.4 °F 90.9 °F 77.0 °F 84% 29.80 in 5.0 mi SSW 4.6 mph - N/A   Mostly Cloudy
2:00 AM 82.4 °F 90.9 °F 77.0 °F 84% 29.80 in 5.0 mi South 3.5 mph - N/A   Scattered Clouds
2:30 AM 82.4 °F 90.9 °F 77.0 °F 84% 29.77 in 5.0 mi SSW 4.6 mph - N/A   Scattered Clouds
3:00 AM 82.4 °F 90.9 °F 77.0 °F 84% 29.80 in 5.0 mi South 3.5 mph - N/A   Scattered Clouds
3:30 AM 82.4 °F 90.9 °F 77.0 °F 84% 29.77 in 5.0 mi SSW 4.6 mph - N/A   Scattered Clouds
4:00 AM 82.4 °F 90.9 °F 77.0 °F 84% 29.77 in 5.0 mi SSW 3.5 mph - N/A   Scattered Clouds
6:00 AM 84.2 °F 96.1 °F 78.8 °F 84% 29.80 in 5.0 mi SSW 4.6 mph - N/A   Mostly Cloudy
6:30 AM 84.2 °F 96.1 °F 78.8 °F 84% 29.80 in 5.6 mi SSW 4.6 mph - N/A   Mostly Cloudy
7:00 AM 84.2 °F 96.1 °F 78.8 °F 84% 29.80 in 5.6 mi SSW 6.9 mph - N/A   Mostly Cloudy
7:30 AM 84.2 °F 96.1 °F 78.8 °F 84% 29.83 in 6.2 mi SSW 6.9 mph - N/A   Mostly Cloudy
8:00 AM 86.0 °F 99.3 °F 78.8 °F 79% 29.83 in 6.2 mi SSW 9.2 mph - N/A   Mostly Cloudy
8:30 AM 86.0 °F 99.3 °F 78.8 °F 79% 29.86 in 6.2 mi SSW 9.2 mph - N/A   Mostly Cloudy
9:00 AM 86.0 °F 99.3 °F 78.8 °F 79% 29.86 in 6.2 mi South 9.2 mph - N/A   Mostly Cloudy
9:30 AM 87.8 °F 102.5 °F 78.8 °F 75% 29.86 in 6.2 mi South 9.2 mph - N/A   Mostly Cloudy
10:00 AM 87.8 °F 102.5 °F 78.8 °F 75% 29.86 in 6.2 mi SSW 9.2 mph - N/A   Mostly Cloudy
10:30 AM 87.8 °F 102.5 °F 78.8 °F 75% 29.86 in 6.2 mi SSW 9.2 mph - N/A   Mostly Cloudy
11:00 AM 89.6 °F 104.7 °F 78.8 °F 70% 29.86 in 6.2 mi South 9.2 mph - N/A   Mostly Cloudy
11:30 AM 89.6 °F 104.7 °F 78.8 °F 70% 29.86 in 6.2 mi South 9.2 mph - N/A   Mostly Cloudy
12:00 PM 91.4 °F 111.0 °F 80.6 °F 71% 29.83 in 6.2 mi South 9.2 mph - N/A   Mostly Cloudy
12:30 PM 89.6 °F 104.7 °F 78.8 °F 70% 29.83 in 6.2 mi SSW 9.2 mph - N/A   Mostly Cloudy
1:00 PM 89.6 °F 104.7 °F 78.8 °F 70% 29.83 in 6.2 mi South 9.2 mph - N/A   Mostly Cloudy
1:30 PM 89.6 °F 104.7 °F 78.8 °F 70% 29.80 in 6.2 mi SSW 9.2 mph - N/A   Mostly Cloudy
2:00 PM 89.6 °F 104.7 °F 78.8 °F 70% 29.77 in 6.2 mi SSW 9.2 mph - N/A   Mostly Cloudy
2:30 PM 91.4 °F 107.2 °F 78.8 °F 66% 29.77 in 6.2 mi South 9.2 mph - N/A   Mostly Cloudy
3:00 PM 89.6 °F 104.7 °F 78.8 °F 70% 29.77 in 6.2 mi SSW 9.2 mph - N/A   Mostly Cloudy
3:30 PM 89.6 °F 104.7 °F 78.8 °F 70% 29.74 in 6.2 mi South 9.2 mph - N/A   Mostly Cloudy
4:00 PM 89.6 °F 104.7 °F 78.8 °F 70% 29.74 in 6.2 mi South 9.2 mph - N/A   Mostly Cloudy
4:30 PM 87.8 °F 102.5 °F 78.8 °F 75% 29.74 in 6.2 mi South 6.9 mph - N/A   Mostly Cloudy
5:00 PM 87.8 °F 102.5 °F 78.8 °F 75% 29.74 in 6.2 mi South 6.9 mph - N/A   Scattered Clouds
5:30 PM 87.8 °F 102.5 °F 78.8 °F 75% 29.74 in 6.2 mi South 9.2 mph - N/A   Scattered Clouds
6:00 PM 87.8 °F 102.5 °F 78.8 °F 75% 29.74 in 6.2 mi South 4.6 mph - N/A   Scattered Clouds
6:30 PM 86.0 °F 99.3 °F 78.8 °F 79% 29.74 in 6.2 mi South 6.9 mph - N/A   Mostly Cloudy
7:00 PM 86.0 °F 99.3 °F 78.8 °F 79% 29.77 in 6.2 mi South 9.2 mph - N/A   Mostly Cloudy
7:30 PM 86.0 °F 99.3 °F 78.8 °F 79% 29.77 in 5.6 mi South 6.9 mph - N/A   Mostly Cloudy
8:00 PM 86.0 °F 99.3 °F 78.8 °F 79% 29.80 in 5.6 mi South 4.6 mph - N/A   Mostly Cloudy
8:30 PM 86.0 °F 99.3 °F 78.8 °F 79% 29.80 in 5.6 mi South 6.9 mph - N/A   Scattered Clouds
9:00 PM 84.2 °F 96.1 °F 78.8 °F 84% 29.83 in 5.6 mi South 6.9 mph - N/A   Scattered Clouds
9:30 PM 84.2 °F 96.1 °F 78.8 °F 84% 29.83 in 5.6 mi South 4.6 mph - N/A   Scattered Clouds
10:00 PM 84.2 °F 96.1 °F 78.8 °F 84% 29.86 in 5.6 mi South 6.9 mph - N/A   Scattered Clouds
10:30 PM 84.2 °F 96.1 °F 78.8 °F 84% 29.86 in 5.0 mi South 9.2 mph - N/A   Scattered Clouds
11:00 PM 84.2 °F 94.1 °F 77.0 °F 79% 29.86 in 5.0 mi South 6.9 mph - N/A   Scattered Clouds
11:30 PM 84.2 °F 94.1 °F 77.0 °F 79% 29.86 in 5.0 mi SSW 9.2 mph - N/A   Scattered Clouds